TimeEST,TemperatureF,Dew PointF,Humidity,Sea Level PressureIn,VisibilityMPH,Wind Direction,Wind SpeedMPH,Gust SpeedMPH,PrecipitationIn,Events,Conditions,WindDirDegrees,DateUTC
12:53 AM,25.0,19.0,78,30.30,9.0,West,6.9,-,N/A,,Overcast,280,2012-12-30 05:53:00
1:53 AM,25.0,19.0,78,30.31,10.0,West,6.9,-,N/A,,Overcast,270,2012-12-30 06:53:00
2:53 AM,25.0,19.0,78,30.34,10.0,WNW,10.4,-,N/A,,Overcast,290,2012-12-30 07:53:00
3:53 AM,24.1,19.0,81,30.36,10.0,West,4.6,-,N/A,,Overcast,270,2012-12-30 08:53:00
4:53 AM,24.1,19.0,81,30.38,10.0,West,3.5,-,N/A,,Overcast,280,2012-12-30 09:53:00
5:53 AM,24.1,18.0,77,30.39,10.0,West,4.6,-,N/A,,Overcast,280,2012-12-30 10:53:00
6:53 AM,23.0,18.0,81,30.44,10.0,West,9.2,-,N/A,,Overcast,270,2012-12-30 11:53:00
7:53 AM,23.0,18.0,81,30.45,10.0,WSW,5.8,-,N/A,,Overcast,240,2012-12-30 12:53:00
8:29 AM,21.2,17.6,86,30.43,10.0,WSW,5.8,-,N/A,,Overcast,240,2012-12-30 13:29:00
8:53 AM,21.9,17.1,82,30.48,10.0,SW,6.9,-,N/A,,Overcast,220,2012-12-30 13:53:00
9:02 AM,21.2,17.6,86,30.45,9.0,SW,6.9,-,N/A,,Overcast,230,2012-12-30 14:02:00
9:53 AM,21.9,17.1,82,30.51,9.0,SW,6.9,-,N/A,,Partly Cloudy,230,2012-12-30 14:53:00
10:32 AM,21.2,17.6,86,30.47,9.0,SW,6.9,-,N/A,,Mostly Cloudy,220,2012-12-30 15:32:00
10:41 AM,21.2,17.6,86,30.47,9.0,SW,6.9,-,N/A,,Scattered Clouds,230,2012-12-30 15:41:00
10:53 AM,23.0,17.1,78,30.51,9.0,SW,6.9,-,N/A,,Partly Cloudy,230,2012-12-30 15:53:00
11:53 AM,24.1,19.0,81,30.50,10.0,Variable,3.5,-,N/A,,Clear,0,2012-12-30 16:53:00
12:53 PM,26.1,21.0,81,30.48,10.0,SSW,6.9,-,N/A,,Clear,200,2012-12-30 17:53:00
1:53 PM,28.0,21.0,75,30.46,10.0,SSW,8.1,-,N/A,,Clear,210,2012-12-30 18:53:00
2:53 PM,28.0,19.9,72,30.43,10.0,SW,5.8,-,N/A,,Clear,230,2012-12-30 19:53:00
3:53 PM,28.0,19.9,72,30.44,10.0,SW,5.8,-,N/A,,Clear,230,2012-12-30 20:53:00
4:53 PM,28.0,21.0,75,30.43,10.0,SSE,4.6,-,N/A,,Clear,150,2012-12-30 21:53:00
5:53 PM,25.0,21.0,85,30.44,10.0,SSW,3.5,-,N/A,,Clear,210,2012-12-30 22:53:00
6:53 PM,23.0,21.0,92,30.44,9.0,Calm,Calm,-,N/A,,Clear,0,2012-12-30 23:53:00
7:53 PM,21.9,19.9,92,30.44,8.0,Calm,Calm,-,N/A,,Clear,0,2012-12-31 00:53:00
8:53 PM,24.1,21.0,88,30.42,8.0,Calm,Calm,-,N/A,,Clear,0,2012-12-31 01:53:00
9:53 PM,21.9,19.0,89,30.40,7.0,Calm,Calm,-,N/A,,Clear,0,2012-12-31 02:53:00
10:53 PM,19.9,18.0,92,30.41,6.0,Calm,Calm,-,N/A,,Clear,0,2012-12-31 03:53:00
11:53 PM,19.9,18.0,92,30.40,6.0,Calm,Calm,-,N/A,,Clear,0,2012-12-31 04:53:00